Orbital Elements at Epoch 2459000.5 (2020-May-31.0) TDB
Reference: JPL 28 (heliocentric ecliptic J2000)
Element | Value | Uncertainty (1-sigma) | Units |
e | .2170005414541104 | 3.8235e-08 | |
a | 2.233135243175372 | 7.5795e-09 | au |
q | 1.74854368626606 | 8.7235e-08 | au |
i | 3.7067865754056 | 4.4839e-06 | deg |
node | 5.064822553178758 | 4.8971e-05 | deg |
peri | 304.4278551467802 | 4.9824e-05 | deg |
M | 277.6497508958898 | 9.0924e-06 | deg |
tp | 2459279.326072735693 (2021-Mar-05.82607274) | 3.1374e-05 | TDB |
period | 1218.908106251735 3.34 | 6.2057e-06 1.699e-08 | d yr |
n | .2953463006387218 | 1.5037e-09 | deg/d |
Q | 2.717726800084684 | 9.2243e-09 | au |
|
| | Orbit Determination Parameters
Additional Information
|